Terug naar catalogus

COSMOS 2251 DEB

ActiefLEO
NORAD 35028·DEBRIS·🇷🇺 Russia

Gelanceerd Jun 16, 1993 vanaf Plesetsk Cosmodrome

Loading…

Volgende Passages (komende 24 uur)

TLE

VersSource: Space-Track

Epoch: Sep 13, 2026, 08:48 UTC

1 35028U 93036AGR 26256.36695105  .00000203  00000-0  49983-4 0  9997
2 35028  74.0364 109.7274 0083214 175.4016 357.7097 14.56763628922847

Volg COSMOS 2251 DEB in realtime met AllMySat

Download on the App Store